Wind_Speed
20 21 19 18 18 17 16 16 15 15 18 19 18 19 17 18 18 18 18 19 18 17 17 16 16 16 16 16 16 16 16 16 16 15 15 14 13 13 13 12 13 12 12 12
22 21 18 18 19 20 20 19 17 17 21 21 20 20 19 19 20 19 20 19 18 18 18 17 17 16 16 17 17 16 16 16 15 15 14 14 14 13 14 14 13 13 13 13
23 20 20 21 21 21 21 19 18 20 22 20 21 20 18 19 20 20 20 19 19 19 18 18 17 17 17 18 17 17 16 16 16 15 15 14 14 14 14 14 14 13 13 13
22 22 22 22 21 21 21 20 20 21 22 21 21 21 19 20 20 20 19 18 19 19 18 18 17 18 18 18 18 18 17 16 16 15 15 15 14 13 14 14 13 13 12 12
23 23 24 24 22 22 21 20 20 21 22 21 20 21 20 21 20 20 19 18 19 19 19 19 19 19 19 18 18 17 17 16 15 15 14 14 14 13 13 13 13 13 13 13
23 24 24 23 22 22 20 19 20 21 22 23 20 21 20 21 19 20 19 17 19 18 19 20 20 20 20 19 18 17 16 16 15 14 14 13 13 12 13 13 13 13 13 12
23 24 24 23 23 23 22 21 21 21 22 21 20 21 21 20 18 19 19 19 19 19 19 19 20 20 20 19 19 17 16 14 14 13 13 12 12 12 12 13 13 13 12 12
22 24 24 24 24 23 23 23 22 21 20 18 18 21 20 19 19 19 19 20 20 19 19 19 19 20 20 19 18 16 15 13 13 13 13 12 12 12 12 13 13 12 11 11
22 21 22 25 24 23 23 23 21 20 18 18 18 20 19 21 20 20 19 19 20 20 20 20 19 19 18 17 16 15 14 14 14 13 13 12 12 12 12 12 12 11 10 10
23 23 22 22 23 24 23 21 21 22 21 19 20 22 20 19 20 20 19 19 19 20 20 19 19 19 18 17 16 15 15 14 13 13 12 12 12 12 12 12 12 11 10 10
25 25 23 24 25 24 23 24 24 24 23 22 21 19 20 21 21 20 19 19 19 19 20 20 19 19 18 17 16 15 15 14 13 13 13 12 12 11 11 12 11 10 10 9
27 26 26 25 25 24 24 24 24 24 24 24 22 19 20 21 21 21 20 20 20 19 19 20 19 20 19 18 17 16 15 14 14 13 12 12 12 11 11 10 9 9 9 9
26 28 27 27 26 26 25 25 24 24 23 24 24 23 24 23 23 22 21 21 21 20 20 20 20 19 19 18 17 16 15 14 13 12 12 12 12 11 11 10 10 9 10 10
27 29 30 28 26 25 25 26 26 26 25 25 24 24 25 26 24 23 23 23 22 22 22 21 20 19 19 18 17 17 15 14 13 13 13 12 12 12 11 11 10 10 10 10
28 28 29 28 27 27 28 27 27 27 26 25 25 26 26 25 24 24 25 24 23 22 22 21 20 19 19 18 17 16 15 14 14 14 14 13 13 13 12 12 12 12 12 12
29 28 29 28 26 26 27 26 28 28 27 26 27 27 26 27 26 26 26 24 24 23 22 22 21 21 20 18 18 18 17 16 15 15 14 15 14 14 14 14 14 14 14 14
29 28 29 27 25 25 27 26 28 29 29 27 26 25 25 26 27 27 26 25 24 24 24 23 23 22 20 20 19 18 17 17 17 17 16 16 16 16 16 16 15 16 16 16
26 27 27 26 25 26 26 25 27 29 29 27 26 24 25 26 27 27 27 26 25 25 24 23 23 22 22 21 20 19 18 18 18 18 18 17 17 18 18 17 17 17 17 17
26 25 26 26 25 25 25 26 26 26 27 27 26 26 26 27 27 27 27 25 25 25 23 22 22 22 22 21 21 20 19 19 19 20 19 19 20 20 20 19 18 17 17 17
27 27 27 26 26 25 25 25 26 26 27 26 27 28 27 27 27 27 27 27 25 24 23 22 22 22 22 22 21 21 20 20 20 20 20 20 20 20 20 19 19 19 18 18
27 28 28 27 26 26 26 26 26 27 26 26 28 28 27 28 28 27 28 27 25 23 23 24 23 23 23 23 23 21 21 21 20 20 20 20 20 19 19 19 20 20 19 19
26 27 27 27 27 26 26 26 27 26 26 26 26 27 27 27 27 26 26 25 24 23 23 23 22 22 22 23 23 22 21 21 21 20 20 20 20 19 20 20 20 20 20 19
25 26 27 28 29 27 26 27 27 27 26 26 26 26 26 25 25 26 26 25 25 23 22 22 22 22 22 23 23 22 22 22 21 21 21 21 22 22 22 22 22 22 21 20
27 28 27 28 27 27 28 27 27 26 26 27 26 26 26 26 25 25 24 24 24 23 22 22 22 22 23 23 23 23 23 23 23 22 22 23 23 23 23 23 23 23 22 22
25 25 26 25 25 25 26 26 25 24 25 25 24 25 25 25 25 25 25 25 24 23 23 23 24 23 22 23 23 23 23 23 23 23 23 23 23 23 23 22 22 22 23 23
23 23 25 24 22 23 23 23 23 23 22 23 22 23 24 24 24 24 24 24 24 23 24 23 24 24 23 24 24 24 23 22 22 22 22 23 23 22 23 23 22 22 23 23
Wind_Direction
233 235 234 233 234 232 231 238 245 255 257 260 260 262 266 269 275 275 277 281 281 283 288 293 296 299 301 303 303 302 300 299 297 292 290 288 285 284 285 285 280 277 275 276
235 236 234 232 233 233 230 235 236 244 250 254 262 263 263 268 271 276 278 278 281 280 284 290 295 298 300 302 303 304 300 297 294 292 288 285 283 283 283 285 281 279 278 276
236 235 235 233 229 231 233 236 238 242 252 254 263 267 267 267 272 274 273 273 279 281 282 287 294 297 299 301 303 303 301 299 294 291 288 284 282 282 283 279 279 280 276 275
231 228 229 232 233 234 235 235 239 242 250 255 260 267 271 271 268 270 272 273 276 279 283 287 292 295 296 298 300 300 299 300 296 292 288 286 281 281 284 284 281 279 278 274
228 228 229 231 233 234 233 233 240 245 249 249 251 258 264 269 265 268 269 272 274 278 282 285 291 294 295 296 297 298 298 298 295 292 290 288 282 281 281 285 282 280 279 275
228 229 232 233 234 235 232 234 240 244 249 251 251 255 260 264 269 271 271 270 273 276 281 284 287 291 294 297 296 296 297 297 295 292 291 289 281 280 280 283 283 281 278 276
229 229 231 232 233 232 229 233 239 243 248 256 255 253 257 256 263 272 277 273 274 277 279 283 287 290 292 292 292 292 293 293 293 291 290 287 282 280 280 283 282 281 276 273
231 229 229 232 234 232 232 232 237 243 250 259 260 256 258 256 261 271 275 277 279 280 280 281 284 287 289 288 288 287 288 289 289 288 286 285 281 280 280 282 282 280 278 273
226 232 234 233 232 230 232 232 233 243 247 251 256 263 260 261 265 270 271 273 277 279 281 281 282 287 287 287 285 285 284 284 284 285 283 280 279 279 282 284 284 282 280 275
223 225 226 234 234 230 229 230 230 236 241 246 248 252 258 260 264 268 272 274 276 280 283 284 285 287 287 284 282 283 281 279 280 284 282 278 276 279 283 283 284 280 278 278
226 227 219 225 231 232 225 227 231 237 240 244 249 253 256 262 263 268 273 277 278 281 283 285 286 287 286 283 282 281 279 276 276 280 278 276 277 281 284 285 283 282 279 281
226 227 222 223 229 232 231 233 234 238 241 243 248 257 261 263 268 271 275 279 279 281 282 283 284 284 285 282 280 277 276 275 275 275 275 275 277 279 282 285 286 286 285 283
228 227 222 222 226 228 231 233 236 241 245 245 247 249 255 260 264 269 272 273 278 281 281 281 281 281 279 277 274 273 272 273 273 271 269 272 275 277 278 279 284 289 289 289
229 231 226 226 224 227 232 233 233 236 238 243 247 250 252 256 262 268 269 272 275 280 282 282 280 279 277 274 271 269 270 270 270 270 271 273 275 276 277 276 279 282 285 287
229 230 228 227 228 229 231 234 234 236 237 240 247 253 256 257 257 263 267 270 274 278 279 280 278 277 275 272 269 268 269 267 266 266 266 269 271 274 276 272 274 278 281 282
230 231 228 227 228 232 235 235 235 238 237 237 242 246 253 258 262 264 266 270 274 276 275 276 276 275 273 271 269 266 265 263 263 264 264 266 268 271 274 274 274 276 277 277
229 231 231 232 229 233 235 234 234 235 237 239 242 247 252 257 261 265 267 270 272 274 274 274 273 270 268 269 268 262 262 261 261 263 264 265 266 270 273 275 275 274 274 276
227 227 229 231 229 232 234 236 235 236 239 244 251 253 253 258 262 264 267 270 272 274 273 272 272 270 266 264 262 262 261 261 262 263 262 262 265 270 272 274 274 275 275 276
230 227 227 230 234 235 234 234 236 239 239 243 247 252 253 257 262 265 268 270 271 272 271 271 269 267 264 259 259 261 263 264 264 265 264 263 264 267 269 269 270 273 273 274
227 227 227 230 233 238 238 240 241 245 245 243 246 251 254 259 262 264 266 268 269 270 268 268 267 266 264 260 258 260 263 264 264 265 265 264 264 265 266 267 268 270 272 273
227 227 228 231 234 238 239 242 244 246 249 248 248 252 255 259 262 263 263 265 267 267 267 266 266 266 264 260 260 261 262 264 265 266 266 265 265 265 266 267 267 269 271 271
228 228 230 232 233 238 240 241 245 249 251 251 252 255 258 259 261 261 261 262 264 267 267 267 266 263 262 261 261 261 261 264 265 265 265 264 264 264 266 268 268 270 271 270
230 231 232 235 236 239 242 243 246 250 251 252 253 255 257 259 260 259 261 262 262 264 264 264 263 262 262 262 260 260 260 261 262 264 264 263 265 265 266 268 269 270 270 270
230 231 232 233 238 241 243 246 249 251 249 252 255 257 258 260 259 259 261 263 264 263 263 263 262 262 261 261 262 263 263 262 263 264 265 264 265 264 264 266 267 267 267 268
230 232 232 236 240 244 245 246 251 253 254 255 255 256 258 260 259 259 260 261 262 264 263 263 263 264 261 261 263 263 262 261 261 263 264 265 265 264 266 267 267 266 266 267
230 233 232 235 239 244 248 250 252 253 253 252 255 254 255 256 258 260 261 261 262 262 262 261 262 261 262 263 263 262 260 261 262 263 264 264 265 266 267 268 268 268 269 270
Height
5838 5841 5843 5847 5850 5853 5855 5858 5860 5860 5860 5860 5860 5862 5863 5863 5863 5863 5862 5862 5861 5861 5860 5858 5857 5856 5854 5853 5851 5849 5848 5847 5846 5845 5844 5844 5844 5843 5843 5843 5842 5843 5843 5843
5834 5837 5841 5844 5846 5849 5852 5854 5856 5859 5859 5858 5858 5859 5860 5860 5859 5859 5859 5858 5858 5858 5857 5856 5854 5853 5852 5850 5848 5847 5845 5844 5843 5842 5841 5841 5840 5840 5840 5840 5840 5840 5840 5840
5830 5835 5837 5839 5842 5845 5847 5850 5853 5855 5854 5854 5855 5855 5856 5856 5856 5855 5855 5854 5855 5854 5853 5852 5851 5850 5849 5847 5845 5844 5842 5841 5840 5839 5838 5838 5838 5837 5837 5837 5837 5837 5837 5837
5825 5830 5832 5835 5838 5840 5843 5846 5849 5850 5851 5851 5853 5851 5852 5852 5852 5851 5851 5851 5851 5850 5850 5849 5848 5847 5845 5844 5843 5841 5839 5838 5837 5836 5836 5835 5835 5835 5834 5834 5834 5834 5834 5835
5821 5825 5827 5830 5834 5836 5839 5842 5844 5845 5846 5847 5847 5847 5848 5847 5847 5847 5847 5847 5847 5847 5847 5845 5844 5843 5842 5840 5839 5838 5836 5835 5834 5833 5833 5832 5832 5832 5832 5832 5832 5832 5832 5832
5816 5819 5822 5826 5829 5831 5834 5838 5839 5840 5841 5842 5843 5843 5843 5843 5842 5843 5842 5842 5843 5843 5843 5842 5841 5840 5838 5836 5835 5834 5833 5832 5831 5830 5830 5830 5829 5830 5830 5830 5829 5829 5829 5829
5810 5813 5817 5821 5824 5827 5830 5833 5834 5836 5836 5837 5839 5838 5840 5838 5839 5839 5839 5838 5838 5839 5838 5838 5837 5836 5834 5832 5831 5830 5829 5829 5828 5828 5827 5827 5827 5827 5827 5827 5827 5826 5826 5826
5806 5809 5812 5815 5818 5821 5824 5827 5830 5832 5833 5834 5834 5834 5835 5834 5834 5835 5836 5835 5835 5835 5834 5834 5833 5831 5830 5828 5827 5827 5826 5826 5825 5825 5825 5825 5825 5825 5825 5825 5824 5824 5824 5823
5801 5805 5808 5810 5813 5817 5819 5822 5826 5828 5829 5830 5831 5830 5830 5829 5830 5831 5831 5832 5831 5831 5830 5829 5828 5826 5824 5824 5824 5823 5823 5823 5823 5822 5822 5822 5822 5822 5823 5822 5822 5822 5821 5821
5796 5800 5803 5806 5808 5811 5815 5818 5821 5822 5823 5825 5827 5827 5826 5826 5826 5827 5827 5827 5827 5827 5826 5825 5824 5822 5822 5820 5819 5819 5820 5820 5820 5820 5820 5820 5820 5820 5820 5820 5820 5819 5819 5819
5790 5793 5797 5800 5801 5805 5809 5813 5815 5817 5819 5820 5822 5824 5820 5820 5822 5822 5823 5823 5823 5823 5822 5821 5820 5819 5818 5817 5816 5816 5817 5817 5817 5817 5817 5817 5817 5817 5818 5818 5817 5817 5817 5817
5783 5786 5790 5794 5797 5801 5804 5807 5810 5811 5813 5814 5816 5820 5815 5816 5817 5818 5819 5819 5819 5819 5818 5818 5817 5816 5815 5814 5814 5814 5814 5814 5814 5814 5815 5815 5815 5815 5816 5816 5815 5815 5815 5815
5777 5780 5783 5787 5792 5795 5797 5800 5803 5806 5808 5809 5811 5815 5812 5811 5812 5813 5814 5814 5814 5814 5814 5813 5812 5812 5811 5810 5810 5810 5811 5811 5812 5812 5812 5813 5813 5813 5814 5814 5813 5813 5813 5813
5770 5773 5777 5782 5785 5788 5791 5795 5797 5799 5800 5802 5804 5806 5806 5805 5807 5808 5808 5808 5809 5809 5809 5808 5808 5807 5807 5806 5807 5807 5807 5808 5809 5809 5810 5810 5811 5811 5811 5811 5811 5811 5811 5811
5763 5767 5771 5775 5779 5781 5785 5788 5791 5793 5795 5797 5799 5799 5799 5800 5801 5802 5803 5803 5803 5803 5803 5803 5803 5803 5802 5802 5803 5803 5804 5805 5805 5806 5807 5807 5808 5808 5809 5809 5809 5809 5809 5808
5756 5761 5765 5768 5772 5775 5778 5781 5784 5787 5789 5791 5793 5793 5793 5794 5796 5796 5796 5797 5797 5798 5798 5798 5798 5798 5797 5798 5799 5799 5800 5801 5802 5802 5803 5804 5804 5805 5805 5806 5806 5806 5806 5806
5750 5755 5759 5763 5766 5769 5772 5775 5778 5780 5782 5784 5786 5788 5789 5789 5790 5791 5792 5792 5792 5792 5792 5792 5792 5791 5791 5793 5794 5795 5796 5797 5798 5799 5800 5800 5801 5801 5802 5802 5802 5802 5802 5802
5744 5748 5753 5757 5760 5762 5768 5770 5772 5774 5775 5779 5780 5781 5782 5783 5784 5785 5786 5786 5786 5786 5786 5786 5787 5787 5787 5787 5789 5790 5791 5792 5793 5794 5795 5796 5797 5797 5798 5798 5798 5798 5798 5798
5738 5743 5747 5751 5754 5757 5761 5764 5766 5767 5769 5772 5774 5775 5775 5777 5778 5779 5779 5779 5780 5780 5780 5780 5781 5781 5782 5782 5784 5785 5786 5787 5788 5789 5790 5791 5792 5793 5793 5794 5794 5794 5794 5794
5734 5738 5742 5745 5748 5751 5755 5757 5759 5762 5763 5765 5766 5767 5769 5770 5771 5773 5773 5773 5773 5774 5774 5775 5775 5776 5777 5778 5778 5779 5781 5782 5783 5784 5785 5786 5787 5787 5788 5789 5789 5789 5789 5789
5729 5732 5735 5739 5742 5745 5748 5751 5753 5756 5758 5759 5760 5760 5761 5763 5764 5765 5765 5766 5767 5767 5768 5769 5769 5770 5771 5772 5773 5774 5775 5776 5777 5778 5779 5780 5781 5782 5783 5784 5784 5784 5784 5784
5724 5727 5730 5733 5736 5740 5742 5744 5747 5748 5750 5752 5753 5754 5755 5756 5757 5757 5758 5760 5761 5761 5762 5762 5763 5764 5765 5766 5768 5769 5770 5771 5772 5773 5774 5774 5775 5776 5777 5778 5779 5779 5779 5779
5719 5722 5725 5728 5731 5733 5734 5737 5739 5741 5743 5744 5745 5747 5748 5749 5750 5750 5751 5752 5753 5754 5755 5756 5756 5758 5759 5760 5762 5763 5764 5765 5766 5767 5768 5769 5770 5771 5772 5772 5773 5773 5773 5773
5713 5715 5718 5720 5723 5725 5728 5730 5732 5733 5735 5737 5738 5739 5740 5741 5742 5744 5744 5746 5747 5748 5749 5749 5750 5751 5753 5754 5755 5756 5758 5759 5760 5761 5762 5762 5763 5764 5765 5765 5766 5766 5767 5767
5706 5709 5712 5714 5717 5719 5721 5724 5725 5726 5728 5729 5731 5732 5732 5734 5735 5736 5737 5738 5739 5741 5742 5743 5744 5745 5746 5747 5749 5750 5751 5752 5753 5754 5755 5756 5757 5758 5758 5759 5759 5760 5760 5760
5701 5704 5706 5709 5712 5714 5716 5717 5719 5720 5720 5721 5722 5724 5725 5725 5727 5728 5729 5730 5732 5733 5734 5735 5737 5738 5739 5741 5742 5743 5744 5745 5746 5747 5748 5749 5749 5750 5751 5752 5752 5753 5753 5753